FFL9133 MYNN-MTCH

Flight info

Callsign FFL9133
Flight time 1h 3m
Altitude 35000
Route BOSAR DCT KNSLY A756 BODLO UA756 NOSOX NOSOX1N
Aircraft B737/M-SDE2E3FGHIRWXY/LB1

Departure

Time 2026-04-25 21:26
Airport Lynden Pindling International Airport (MYNN)

Arrival

Time 2026-04-25 22:29
Airport Cap Haitien International Airport (MTCH)
Time Latitude Longitude Altitude Speed Heading
2026-04-25 21:15 25.04621 -77.46478 16 ft 0 kts 128°
2026-04-25 21:19 25.04614 -77.46468 16 ft 3 kts 128°
2026-04-25 21:20 25.04600 -77.46448 18 ft 3 kts 128°
2026-04-25 21:20 25.04595 -77.46442 17 ft 3 kts 128°
2026-04-25 21:20 25.04565 -77.46427 16 ft 5 kts 179°
2026-04-25 21:20 25.04541 -77.46451 16 ft 5 kts 258°
2026-04-25 21:21 25.04553 -77.46489 18 ft 6 kts 292°
2026-04-25 21:21 25.04564 -77.46533 18 ft 6 kts 271°
2026-04-25 21:21 25.04548 -77.46574 17 ft 6 kts 249°
2026-04-25 21:21 25.04561 -77.46623 18 ft 8 kts 310°
2026-04-25 21:22 25.04610 -77.46681 19 ft 12 kts 313°
2026-04-25 21:22 25.04654 -77.46731 17 ft 15 kts 314°
2026-04-25 21:22 25.04729 -77.46816 17 ft 15 kts 314°
2026-04-25 21:22 25.04825 -77.46925 20 ft 15 kts 314°
2026-04-25 21:23 25.04893 -77.47004 17 ft 14 kts 313°
2026-04-25 21:23 25.04960 -77.47079 18 ft 13 kts 317°
2026-04-25 21:23 25.05027 -77.47146 17 ft 13 kts 317°
2026-04-25 21:23 25.05091 -77.47212 18 ft 13 kts 317°
2026-04-25 21:24 25.05133 -77.47256 18 ft 12 kts 315°
2026-04-25 21:24 25.05193 -77.47322 18 ft 12 kts 315°
2026-04-25 21:24 25.05221 -77.47385 17 ft 8 kts 277°
2026-04-25 21:24 25.05215 -77.47445 18 ft 8 kts 248°
2026-04-25 21:25 25.05186 -77.47519 20 ft 9 kts 236°
2026-04-25 21:25 25.05133 -77.47513 19 ft 11 kts 137°
2026-04-25 21:25 25.05027 -77.47396 19 ft 64 kts 134°
2026-04-25 21:25 25.04202 -77.46462 106 ft 177 kts 134°
2026-04-25 21:26 25.03591 -77.45802 726 ft 187 kts 133°
2026-04-25 21:26 25.02641 -77.44819 2144 ft 190 kts 137°
2026-04-25 21:26 25.01593 -77.43870 3348 ft 199 kts 141°
2026-04-25 21:26 25.00498 -77.42932 4438 ft 205 kts 142°
2026-04-25 21:27 24.98911 -77.41560 5148 ft 238 kts 143°
2026-04-25 21:27 24.97519 -77.40339 5469 ft 272 kts 143°
2026-04-25 21:27 24.96493 -77.39458 6061 ft 281 kts 140°
2026-04-25 21:27 24.94971 -77.38131 7180 ft 284 kts 141°
2026-04-25 21:28 24.93422 -77.36762 8283 ft 289 kts 142°
2026-04-25 21:28 24.91838 -77.35346 9302 ft 297 kts 144°
2026-04-25 21:28 24.90228 -77.33881 9813 ft 302 kts 144°
2026-04-25 21:28 24.88568 -77.32401 10119 ft 320 kts 141°
2026-04-25 21:29 24.86741 -77.30790 10363 ft 353 kts 140°
2026-04-25 21:29 24.84742 -77.29035 10573 ft 382 kts 141°
2026-04-25 21:29 24.82630 -77.27126 10930 ft 400 kts 146°
2026-04-25 21:29 24.80378 -77.25267 11631 ft 408 kts 142°
2026-04-25 21:30 24.78215 -77.23224 12454 ft 412 kts 140°
2026-04-25 21:30 24.76110 -77.21125 13236 ft 416 kts 139°
2026-04-25 21:30 24.73963 -77.18959 13948 ft 421 kts 139°
2026-04-25 21:30 24.72498 -77.17487 14377 ft 425 kts 140°
2026-04-25 21:31 24.69571 -77.14581 15226 ft 431 kts 140°
2026-04-25 21:31 24.67326 -77.12379 15848 ft 435 kts 140°
2026-04-25 21:31 24.65045 -77.10161 16465 ft 440 kts 140°
2026-04-25 21:31 24.62735 -77.07926 17074 ft 444 kts 140°
2026-04-25 21:32 24.60404 -77.05678 17643 ft 449 kts 140°
2026-04-25 21:32 24.58040 -77.03404 18203 ft 453 kts 140°
2026-04-25 21:32 24.55657 -77.01113 18695 ft 457 kts 140°
2026-04-25 21:32 24.53260 -76.98808 19222 ft 459 kts 140°
2026-04-25 21:33 24.50879 -76.96522 19741 ft 462 kts 140°
2026-04-25 21:33 24.48458 -76.94196 20240 ft 465 kts 141°
2026-04-25 21:33 24.46015 -76.91851 20730 ft 468 kts 141°
2026-04-25 21:33 24.43556 -76.89492 21196 ft 471 kts 141°
2026-04-25 21:34 24.41082 -76.87119 21659 ft 474 kts 141°
2026-04-25 21:34 24.38591 -76.84732 22112 ft 477 kts 141°
2026-04-25 21:34 24.36084 -76.82330 22547 ft 480 kts 141°
2026-04-25 21:34 24.33569 -76.79922 22961 ft 483 kts 141°
2026-04-25 21:35 24.31032 -76.77494 23367 ft 486 kts 141°
2026-04-25 21:35 24.28478 -76.75051 23719 ft 488 kts 141°
2026-04-25 21:35 24.25910 -76.72596 24027 ft 491 kts 142°
2026-04-25 21:35 24.23328 -76.70130 24312 ft 494 kts 142°
2026-04-25 21:36 24.20763 -76.67682 24590 ft 497 kts 142°
2026-04-25 21:36 24.18148 -76.65186 24860 ft 500 kts 142°
2026-04-25 21:36 24.15515 -76.62675 25131 ft 503 kts 142°
2026-04-25 21:36 24.12873 -76.60157 25391 ft 506 kts 142°
2026-04-25 21:37 24.10211 -76.57621 25650 ft 508 kts 142°
2026-04-25 21:37 24.08445 -76.55939 25815 ft 510 kts 143°
2026-04-25 21:37 24.04852 -76.52520 26143 ft 513 kts 143°
2026-04-25 21:37 24.02154 -76.49954 26450 ft 513 kts 143°
2026-04-25 21:38 23.99464 -76.47395 26815 ft 513 kts 143°
2026-04-25 21:38 23.96772 -76.44836 27204 ft 512 kts 143°
2026-04-25 21:38 23.94078 -76.42278 27583 ft 513 kts 143°
2026-04-25 21:38 23.91385 -76.39722 27960 ft 513 kts 143°
2026-04-25 21:39 23.88694 -76.37171 28374 ft 513 kts 144°
2026-04-25 21:39 23.86035 -76.34651 28796 ft 513 kts 144°
2026-04-25 21:39 23.83339 -76.32097 29233 ft 512 kts 144°
2026-04-25 21:39 23.80649 -76.29550 29692 ft 512 kts 144°
2026-04-25 21:40 23.77951 -76.26997 30125 ft 512 kts 144°
2026-04-25 21:40 23.75264 -76.24456 30528 ft 512 kts 144°
2026-04-25 21:40 23.72568 -76.21908 30928 ft 512 kts 144°
2026-04-25 21:40 23.69875 -76.19365 31313 ft 512 kts 144°
2026-04-25 21:41 23.67182 -76.16823 31695 ft 512 kts 145°
2026-04-25 21:41 23.64524 -76.14315 32068 ft 512 kts 145°
2026-04-25 21:41 23.61833 -76.11778 32426 ft 513 kts 145°
2026-04-25 21:41 23.59132 -76.09233 32759 ft 513 kts 145°
2026-04-25 21:42 23.56431 -76.06689 33126 ft 513 kts 146°
2026-04-25 21:42 23.53730 -76.04146 33486 ft 513 kts 146°
2026-04-25 21:42 23.51025 -76.01601 33818 ft 514 kts 146°
2026-04-25 21:42 23.48322 -75.99060 34116 ft 514 kts 146°
2026-04-25 21:43 23.45614 -75.96516 34406 ft 514 kts 146°
2026-04-25 21:43 23.42902 -75.93967 34701 ft 514 kts 146°
2026-04-25 21:43 23.40194 -75.91426 34943 ft 515 kts 147°
2026-04-25 21:43 23.37470 -75.88873 34921 ft 519 kts 147°
2026-04-25 21:44 23.32042 -75.83784 34918 ft 516 kts 147°
2026-04-25 21:45 23.23913 -75.76168 34918 ft 512 kts 147°
2026-04-25 21:45 23.18516 -75.71124 34919 ft 511 kts 147°
2026-04-25 21:46 23.13128 -75.66095 34924 ft 510 kts 147°
2026-04-25 21:46 23.07745 -75.61075 34926 ft 511 kts 147°
2026-04-25 21:47 23.02341 -75.56043 34927 ft 512 kts 147°
2026-04-25 21:47 22.96963 -75.51038 34925 ft 514 kts 148°
2026-04-25 21:48 22.91529 -75.45986 34929 ft 515 kts 148°
2026-04-25 21:48 22.86085 -75.40931 34922 ft 516 kts 148°
2026-04-25 21:49 22.80674 -75.35910 34921 ft 516 kts 148°
2026-04-25 21:49 22.75216 -75.30852 34919 ft 516 kts 148°
2026-04-25 21:50 22.69763 -75.25804 34921 ft 516 kts 148°
2026-04-25 21:50 22.64309 -75.20761 34920 ft 515 kts 148°
2026-04-25 21:51 22.58889 -75.15755 34916 ft 515 kts 148°
2026-04-25 21:51 22.53439 -75.10727 34916 ft 515 kts 148°
2026-04-25 21:52 22.47988 -75.05703 34917 ft 515 kts 148°
2026-04-25 21:52 22.42537 -75.00685 34917 ft 515 kts 148°
2026-04-25 21:53 22.37123 -74.95706 34921 ft 515 kts 148°
2026-04-25 21:53 22.31756 -74.90543 34917 ft 520 kts 144°
2026-04-25 21:54 22.26666 -74.84970 34923 ft 522 kts 142°
2026-04-25 21:54 22.21653 -74.79362 34918 ft 522 kts 142°
2026-04-25 21:55 22.16580 -74.73766 34912 ft 521 kts 143°
2026-04-25 21:55 22.11477 -74.68205 34911 ft 521 kts 143°
2026-04-25 21:56 22.06369 -74.62661 34913 ft 521 kts 143°
2026-04-25 21:56 22.01258 -74.57118 34914 ft 521 kts 143°
2026-04-25 21:57 21.96183 -74.51614 34918 ft 521 kts 143°
2026-04-25 21:57 21.91072 -74.46077 34916 ft 521 kts 143°
2026-04-25 21:58 21.85957 -74.40540 34913 ft 521 kts 143°
2026-04-25 21:58 21.80842 -74.35010 34911 ft 521 kts 143°
2026-04-25 21:59 21.75758 -74.29519 34912 ft 521 kts 143°
2026-04-25 21:59 21.70642 -74.24000 34907 ft 521 kts 143°
2026-04-25 22:00 21.62964 -74.15728 34908 ft 521 kts 143°
2026-04-25 22:00 21.57839 -74.10214 34913 ft 521 kts 143°
2026-04-25 22:01 21.52756 -74.04750 34913 ft 520 kts 143°
2026-04-25 22:01 21.48507 -74.00188 34908 ft 520 kts 143°
2026-04-25 22:02 21.42528 -73.93774 34913 ft 519 kts 143°
2026-04-25 22:02 21.37452 -73.88336 34909 ft 519 kts 143°
2026-04-25 22:03 21.32348 -73.82872 34909 ft 518 kts 143°
2026-04-25 22:03 21.27246 -73.77418 34916 ft 518 kts 143°
2026-04-25 22:04 21.22147 -73.71971 34907 ft 517 kts 143°
2026-04-25 22:04 21.17054 -73.66537 34908 ft 516 kts 143°
2026-04-25 22:05 21.12006 -73.61156 34906 ft 515 kts 143°
2026-04-25 22:05 21.06926 -73.55747 34912 ft 514 kts 143°
2026-04-25 22:06 21.04380 -73.53038 34794 ft 516 kts 143°
2026-04-25 22:06 21.01826 -73.50325 34363 ft 518 kts 143°
2026-04-25 22:06 20.99286 -73.47623 33924 ft 514 kts 142°
2026-04-25 22:06 20.96748 -73.44926 33412 ft 515 kts 142°
2026-04-25 22:07 20.94203 -73.42224 32908 ft 516 kts 142°
2026-04-25 22:07 20.92512 -73.40430 32580 ft 516 kts 142°
2026-04-25 22:07 20.89110 -73.36821 31916 ft 515 kts 142°
2026-04-25 22:07 20.86571 -73.34128 31439 ft 514 kts 142°
2026-04-25 22:08 20.84063 -73.31469 30972 ft 513 kts 142°
2026-04-25 22:08 20.81536 -73.28792 30503 ft 512 kts 141°
2026-04-25 22:08 20.79006 -73.26114 30044 ft 511 kts 141°
2026-04-25 22:08 20.76480 -73.23442 29524 ft 511 kts 141°
2026-04-25 22:09 20.73957 -73.20775 28987 ft 511 kts 141°
2026-04-25 22:09 20.71427 -73.18101 28467 ft 511 kts 141°
2026-04-25 22:09 20.68945 -73.15473 27929 ft 493 kts 140°
2026-04-25 22:09 20.66554 -73.12937 27375 ft 475 kts 140°
2026-04-25 22:10 20.64250 -73.10495 26797 ft 459 kts 140°
2026-04-25 22:10 20.62013 -73.08131 26235 ft 445 kts 140°
2026-04-25 22:10 20.59840 -73.05838 25694 ft 433 kts 140°
2026-04-25 22:10 20.57725 -73.03611 25153 ft 423 kts 140°
2026-04-25 22:11 20.55651 -73.01429 24627 ft 413 kts 140°
2026-04-25 22:11 20.53656 -72.99331 24119 ft 405 kts 140°
2026-04-25 22:11 20.51671 -72.97245 23611 ft 397 kts 140°
2026-04-25 22:11 20.49719 -72.95193 23042 ft 391 kts 140°
2026-04-25 22:12 20.47791 -72.93167 22435 ft 386 kts 140°
2026-04-25 22:12 20.45893 -72.91172 21851 ft 381 kts 139°
2026-04-25 22:12 20.44019 -72.89204 21281 ft 376 kts 139°
2026-04-25 22:12 20.42787 -72.87910 20918 ft 373 kts 139°
2026-04-25 22:13 20.40336 -72.85336 20179 ft 368 kts 139°
2026-04-25 22:13 20.38521 -72.83431 19637 ft 364 kts 139°
2026-04-25 22:13 20.36745 -72.81567 19111 ft 361 kts 139°
2026-04-25 22:13 20.34965 -72.79700 18594 ft 358 kts 139°
2026-04-25 22:14 20.33198 -72.77846 18059 ft 355 kts 139°
2026-04-25 22:14 20.31444 -72.76007 17460 ft 352 kts 139°
2026-04-25 22:14 20.29705 -72.74184 16895 ft 350 kts 139°
2026-04-25 22:14 20.27977 -72.72373 16318 ft 347 kts 139°
2026-04-25 22:15 20.26268 -72.70581 15768 ft 344 kts 139°
2026-04-25 22:15 20.24570 -72.68803 15222 ft 341 kts 139°
2026-04-25 22:15 20.22885 -72.67038 14671 ft 338 kts 139°
2026-04-25 22:16 20.19585 -72.63584 13627 ft 332 kts 139°
2026-04-25 22:16 20.17944 -72.61868 13041 ft 329 kts 139°
2026-04-25 22:16 20.16320 -72.60170 12465 ft 326 kts 138°
2026-04-25 22:16 20.14709 -72.58485 11900 ft 323 kts 138°
2026-04-25 22:17 20.13112 -72.56817 11340 ft 320 kts 138°
2026-04-25 22:17 20.11527 -72.55161 10797 ft 318 kts 138°
2026-04-25 22:17 20.09959 -72.53523 10298 ft 312 kts 138°
2026-04-25 22:18 20.09535 -72.53080 10192 ft 309 kts 138°
2026-04-25 22:18 20.08119 -72.51600 9776 ft 302 kts 138°
2026-04-25 22:18 20.06710 -72.50128 9300 ft 295 kts 138°
2026-04-25 22:18 20.05257 -72.48612 8794 ft 289 kts 138°
2026-04-25 22:19 20.03832 -72.47126 8295 ft 284 kts 138°
2026-04-25 22:19 20.02433 -72.45666 7800 ft 280 kts 138°
2026-04-25 22:19 20.01053 -72.44226 7337 ft 276 kts 138°
2026-04-25 22:19 19.99691 -72.42806 6861 ft 273 kts 138°
2026-04-25 22:20 19.98342 -72.41402 6398 ft 270 kts 138°
2026-04-25 22:20 19.97006 -72.40010 5904 ft 268 kts 138°
2026-04-25 22:20 19.95543 -72.38895 5398 ft 260 kts 161°
2026-04-25 22:20 19.93835 -72.38364 5056 ft 251 kts 168°
2026-04-25 22:21 19.92177 -72.37904 4799 ft 241 kts 168°
2026-04-25 22:21 19.90587 -72.37463 4537 ft 232 kts 168°
2026-04-25 22:21 19.89032 -72.37030 4308 ft 229 kts 167°
2026-04-25 22:21 19.87517 -72.36605 4082 ft 220 kts 167°
2026-04-25 22:22 19.86068 -72.36196 3837 ft 211 kts 168°
2026-04-25 22:22 19.84693 -72.35808 3618 ft 206 kts 167°
2026-04-25 22:22 19.83311 -72.35418 3387 ft 205 kts 167°
2026-04-25 22:22 19.81937 -72.35029 3141 ft 204 kts 167°
2026-04-25 22:23 19.80569 -72.34643 2882 ft 203 kts 167°
2026-04-25 22:23 19.79201 -72.34256 2690 ft 205 kts 166°
2026-04-25 22:23 19.77826 -72.33867 2635 ft 203 kts 166°
2026-04-25 22:23 19.76464 -72.33481 2632 ft 202 kts 166°
2026-04-25 22:24 19.75152 -72.33110 2602 ft 186 kts 166°
2026-04-25 22:24 19.73960 -72.32772 2586 ft 173 kts 166°
2026-04-25 22:24 19.72789 -72.32441 2627 ft 176 kts 167°
2026-04-25 22:24 19.71612 -72.32108 2621 ft 174 kts 166°
2026-04-25 22:25 19.70451 -72.31780 2617 ft 171 kts 166°
2026-04-25 22:25 19.69309 -72.31454 2464 ft 171 kts 165°
2026-04-25 22:25 19.68223 -72.30968 2199 ft 165 kts 149°
2026-04-25 22:25 19.67378 -72.30191 1897 ft 159 kts 129°
2026-04-25 22:26 19.66805 -72.29191 1617 ft 159 kts 112°
2026-04-25 22:26 19.66511 -72.28087 1331 ft 157 kts 97°
2026-04-25 22:26 19.66487 -72.26938 1172 ft 156 kts 82°
2026-04-25 22:26 19.66745 -72.25831 1122 ft 154 kts 67°
2026-04-25 22:27 19.67224 -72.24904 1011 ft 135 kts 53°
2026-04-25 22:27 19.67856 -72.24180 896 ft 133 kts 39°
2026-04-25 22:27 19.68564 -72.23572 838 ft 131 kts 37°
2026-04-25 22:27 19.69274 -72.22955 734 ft 133 kts 39°
2026-04-25 22:28 19.70003 -72.22328 589 ft 137 kts 38°
2026-04-25 22:28 19.70740 -72.21688 396 ft 135 kts 39°
2026-04-25 22:28 19.71456 -72.21061 151 ft 135 kts 39°
2026-04-25 22:28 19.72149 -72.20454 14 ft 117 kts 38°
2026-04-25 22:29 19.72664 -72.20000 8 ft 66 kts 40°
2026-04-25 22:29 19.72957 -72.19746 9 ft 50 kts 39°
2026-04-25 22:29 19.73199 -72.19546 8 ft 35 kts 38°
2026-04-25 22:30 19.73357 -72.19495 9 ft 9 kts 357°
2026-04-25 22:30 19.73416 -72.19498 10 ft 8 kts 357°
2026-04-25 22:30 19.73473 -72.19501 10 ft 8 kts 357°
2026-04-25 22:30 19.73509 -72.19493 11 ft 8 kts 38°
2026-04-25 22:31 19.73564 -72.19444 11 ft 8 kts 31°
2026-04-25 22:31 19.73614 -72.19436 12 ft 7 kts 342°
2026-04-25 22:31 19.73650 -72.19429 12 ft 4 kts 56°
2026-04-25 22:31 19.73645 -72.19414 12 ft 0 kts 128°